Regional Weather Roundup
Issued by NWS

Home | Current Version | Previous Version | Graphics & Text | Print | Product List | Glossary On
Versions: 1 2 3 4 5 6 7 8 9 10 11 12 13 14 15 16 17 18 19 20 21 22 23 24 25 26 27 28 29 30 31 32 33 34 35 36 37 38 39 40 41 42 43 44 45 46 47 48 49 50
000
ASUS43 KBIS 020610
RWRND

NORTH DAKOTA REGIONAL WEATHER ROUNDUP
NATIONAL WEATHER SERVICE BISMARCK ND
100 AM CDT TUE SEP 02 2014

NOTE: "FAIR" INDICATES FEW OR NO CLOUDS BELOW 12,000 FEET WITH NO
SIGNIFICANT WEATHER AND/OR OBSTRUCTIONS TO VISIBILITY.


NDZ001>003-009>011-017-020700-
NORTHWEST NORTH DAKOTA

CITY           SKY/WX    TMP DP  RH WIND       PRES   REMARKS
WILLISTON      MOCLDY    55  50  83 S3        29.82S
6HR MIN TEMP:  54; 6HR MAX TEMP:  69; 6HR PCP: TRACE;

MINOT          FAIR      56  47  71 SW10      29.80S
MINOT AFB      FAIR      49  48  97 W6        29.80S
$$

NDZ018>021-031>035-040>046-020700-
SOUTHWEST NORTH DAKOTA

CITY           SKY/WX    TMP DP  RH WIND       PRES   REMARKS
BISMARCK       CLEAR     53  50  89 CALM      29.87S
6HR MIN TEMP:  53; 6HR MAX TEMP:  72;

DICKINSON      CLEAR     52  46  80 S9        29.87F
GARRISON         N/A     55  52  89 W6        29.83F
6HR MIN TEMP:  51; 6HR MAX TEMP:  70; 6HR PCP:  0.01;

HETTINGER ARPT CLEAR     51  45  79 SW5       29.93S
$$

NDZ004>008-012>016-024-026-027-054-020700-
NORTHEAST NORTH DAKOTA

CITY           SKY/WX    TMP DP  RH WIND       PRES   REMARKS
GRAND FORKS    FAIR      54  49  83 SW6       29.76S
GRND FRKS AFB  FAIR      52  51  99 W7        29.77F
DEVILS LAKE    FAIR      59  48  67 W9        29.77F
$$

NDZ022-023-025-028>030-036>039-047>053-020700-
SOUTHEAST NORTH DAKOTA

CITY           SKY/WX    TMP DP  RH WIND       PRES   REMARKS
FARGO          FAIR      55  53  93 SW6       29.80S
6HR MIN TEMP:  55; 6HR MAX TEMP:  66;

JAMESTOWN      FAIR      55  50  83 SW3       29.83R
$$




USA.gov is the U.S. government's official web portal to all federal, state and local government web resources and services.